| time (UTC) | temp F | wind direction | speed MPH | gust MPH | rain 1hr in | rain 24hr in | rain mn in | humidity % | barometer mb |
| 20260507030031 | 40 | 0 | 0.0 | 2.0 | 0.00 | 0.00 | 0.00 | 89 | 1006.5 |
| 20260507024527 | 40 | 0 | 0.0 | 2.0 | 0.00 | 0.00 | 0.00 | 89 | 1006.6 |
| 20260507023029 | 39 | 0 | 0.0 | 2.0 | 0.00 | 0.00 | 0.00 | 89 | 1006.8 |
| 20260507021526 | 39 | 0 | 0.0 | 1.0 | 0.00 | 0.00 | 0.00 | 88 | 1006.8 |
| 20260507020025 | 40 | 0 | 0.0 | 1.0 | 0.00 | 0.00 | 0.00 | 87 | 1006.8 |
| 20260507014529 | 39 | 0 | 0.0 | 2.0 | 0.00 | 0.00 | 0.00 | 87 | 1006.9 |
| 20260507013035 | 40 | 0 | 0.0 | 2.0 | 0.00 | 0.00 | 0.00 | 87 | 1007.0 |
| 20260507011537 | 40 | 0 | 0.0 | 2.0 | 0.00 | 0.00 | 0.00 | 86 | 1007.0 |
| 20260507010028 | 41 | 0 | 0.0 | 1.0 | 0.00 | 0.00 | 0.00 | 85 | 1006.9 |
| 20260507004525 | 41 | 0 | 0.0 | 0.0 | 0.00 | 0.00 | 0.00 | 83 | 1006.8 |
| 20260507003025 | 42 | 0 | 0.0 | 2.0 | 0.00 | 0.00 | 0.00 | 83 | 1006.6 |
| 20260507000025 | 44 | 0 | 0.0 | 1.0 | 0.00 | 0.00 | 0.00 | 81 | 1006.3 |
| 20260506234536 | 44 | 0 | 0.0 | 2.0 | 0.00 | 0.00 | 0.00 | 81 | 1006.2 |
| 20260506233027 | 45 | 0 | 0.0 | 0.0 | 0.00 | 0.00 | 0.00 | 80 | 1006.1 |
| 20260506231534 | 45 | 0 | 0.0 | 0.0 | 0.00 | 0.00 | 0.00 | 79 | 1006.0 |
| 20260506230031 | 45 | 0 | 0.0 | 1.0 | 0.00 | 0.00 | 0.00 | 78 | 1005.9 |
| 20260506224530 | 46 | 0 | 0.0 | 2.0 | 0.00 | 0.00 | 0.00 | 79 | 1005.9 |
| 20260506223029 | 46 | 0 | 0.0 | 0.0 | 0.00 | 0.00 | 0.00 | 77 | 1006.0 |
| 20260506221527 | 47 | 0 | 0.0 | 1.0 | 0.00 | 0.00 | 0.00 | 75 | 1006.1 |
| 20260506220028 | 47 | 0 | 0.0 | 2.0 | 0.00 | 0.00 | 0.00 | 74 | 1006.0 |
| 20260506214528 | 48 | 0 | 0.0 | 2.0 | 0.00 | 0.00 | 0.00 | 73 | 1005.9 |
| 20260506213029 | 48 | 0 | 0.0 | 2.0 | 0.00 | 0.00 | 0.00 | 73 | 1005.8 |
| 20260506211529 | 50 | 275 | 0.0 | 3.0 | 0.00 | 0.00 | 0.00 | 71 | 1005.6 |
| 20260506210030 | 48 | 0 | 0.0 | 3.0 | 0.00 | 0.00 | 0.00 | 72 | 1005.7 |
| 20260506204533 | 49 | 90 | 0.0 | 4.0 | 0.00 | 0.00 | 0.00 | 71 | 1005.8 |
| 20260506203034 | 47 | 0 | 0.0 | 2.0 | 0.00 | 0.00 | 0.00 | 74 | 1005.8 |
| 20260506201526 | 48 | 5 | 0.0 | 3.0 | 0.00 | 0.00 | 0.00 | 73 | 1006.0 |
| 20260506200031 | 48 | 30 | 1.0 | 3.0 | 0.00 | 0.00 | 0.00 | 74 | 1006.1 |
| 20260506194527 | 48 | 0 | 0.0 | 3.0 | 0.00 | 0.02 | 0.00 | 74 | 1006.1 |
| 20260506193028 | 47 | 0 | 0.0 | 3.0 | 0.00 | 0.02 | 0.00 | 77 | 1006.2 |
| 20260506191528 | 47 | 0 | 0.0 | 4.0 | 0.00 | 0.02 | 0.00 | 75 | 1006.1 |
| 20260506190035 | 46 | 0 | 0.0 | 3.0 | 0.00 | 0.02 | 0.00 | 77 | 1006.2 |
| 20260506184529 | 45 | 323 | 1.0 | 4.0 | 0.00 | 0.09 | 0.00 | 78 | 1006.5 |
| 20260506183027 | 45 | 0 | 0.0 | 3.0 | 0.00 | 0.09 | 0.00 | 79 | 1006.3 |
| 20260506181533 | 45 | 65 | 0.0 | 3.0 | 0.00 | 0.09 | 0.00 | 78 | 1006.4 |
| 20260506180030 | 45 | 0 | 1.0 | 5.0 | 0.00 | 0.09 | 0.00 | 80 | 1006.2 |
| 20260506174530 | 46 | 344 | 0.0 | 4.0 | 0.00 | 0.09 | 0.00 | 78 | 1006.3 |
| 20260506173032 | 46 | 352 | 1.0 | 4.0 | 0.00 | 0.09 | 0.00 | 78 | 1006.2 |
| 20260506171528 | 47 | 298 | 0.0 | 4.0 | 0.00 | 0.09 | 0.00 | 76 | 1006.4 |
| 20260506170026 | 48 | 0 | 0.0 | 3.0 | 0.00 | 0.09 | 0.00 | 72 | 1006.4 |
| 20260506164528 | 48 | 19 | 0.0 | 3.0 | 0.00 | 0.10 | 0.00 | 74 | 1006.6 |
| 20260506163045 | 46 | 321 | 0.0 | 4.0 | 0.00 | 0.10 | 0.00 | 76 | 1006.7 |
| 20260506161530 | 46 | 5 | 0.0 | 3.0 | 0.00 | 0.10 | 0.00 | 77 | 1006.9 |
| 20260506160029 | 46 | 352 | 0.0 | 2.0 | 0.00 | 0.10 | 0.00 | 79 | 1007.2 |
| 20260506154535 | 44 | 326 | 0.0 | 3.0 | 0.00 | 0.11 | 0.00 | 81 | 1007.3 |
| 20260506153031 | 44 | 0 | 0.0 | 3.0 | 0.00 | 0.11 | 0.00 | 82 | 1007.4 |
| 20260506151537 | 44 | 340 | 0.0 | 2.0 | 0.00 | 0.11 | 0.00 | 83 | 1007.6 |
| 20260506150029 | 43 | 0 | 0.0 | 2.0 | 0.00 | 0.11 | 0.00 | 83 | 1007.5 |
| 20260506144529 | 44 | 0 | 0.0 | 1.0 | 0.00 | 0.52 | 0.00 | 82 | 1007.4 |
| 20260506143028 | 44 | 0 | 0.0 | 3.0 | 0.00 | 0.52 | 0.00 | 79 | 1007.3 |
| 20260506141532 | 44 | 0 | 0.0 | 3.0 | 0.00 | 0.52 | 0.00 | 76 | 1007.1 |
| 20260506140033 | 44 | 0 | 0.0 | 1.0 | 0.00 | 0.52 | 0.00 | 78 | 1007.2 |
| 20260506134528 | 44 | 270 | 0.0 | 1.0 | 0.00 | 0.58 | 0.00 | 82 | 1007.3 |
| 20260506133029 | 44 | 0 | 0.0 | 2.0 | 0.00 | 0.58 | 0.00 | 82 | 1007.2 |
| 20260506131534 | 44 | 0 | 0.0 | 2.0 | 0.00 | 0.58 | 0.00 | 82 | 1007.2 |
| 20260506130030 | 44 | 0 | 0.0 | 3.0 | 0.00 | 0.58 | 0.00 | 83 | 1007.2 |
| 20260506124530 | 43 | 0 | 0.0 | 1.0 | 0.00 | 0.58 | 0.00 | 80 | 1007.1 |
| 20260506123030 | 43 | 0 | 0.0 | 1.0 | 0.00 | 0.58 | 0.00 | 79 | 1007.1 |
| 20260506121526 | 42 | 0 | 0.0 | 0.0 | 0.00 | 0.58 | 0.00 | 78 | 1007.3 |
| 20260506120026 | 42 | 0 | 0.0 | 0.0 | 0.00 | 0.58 | 0.00 | 79 | 1007.3 |
| 20260506114526 | 42 | 0 | 0.0 | 0.0 | 0.00 | 0.58 | 0.00 | 77 | 1007.2 |
| 20260506113028 | 41 | 0 | 0.0 | 0.0 | 0.00 | 0.58 | 0.00 | 78 | 1007.3 |
| 20260506111530 | 41 | 0 | 0.0 | 0.0 | 0.00 | 0.58 | 0.00 | 76 | 1007.3 |
| 20260506110028 | 41 | 0 | 0.0 | 0.0 | 0.00 | 0.58 | 0.00 | 75 | 1007.4 |
| 20260506104525 | 41 | 0 | 0.0 | 0.0 | 0.00 | 0.58 | 0.00 | 76 | 1007.6 |
| 20260506103029 | 41 | 0 | 0.0 | 0.0 | 0.00 | 0.58 | 0.00 | 74 | 1007.5 |
| 20260506101530 | 41 | 0 | 0.0 | 0.0 | 0.00 | 0.58 | 0.00 | 70 | 1007.1 |
| 20260506100031 | 41 | 0 | 0.0 | 0.0 | 0.00 | 0.58 | 0.00 | 70 | 1007.2 |
| 20260506094530 | 41 | 0 | 0.0 | 0.0 | 0.00 | 0.58 | 0.00 | 71 | 1007.0 |
| 20260506093026 | 41 | 0 | 0.0 | 0.0 | 0.00 | 0.58 | 0.00 | 71 | 1007.0 |
| 20260506091527 | 41 | 0 | 0.0 | 0.0 | 0.00 | 0.58 | 0.00 | 74 | 1007.1 |
| 20260506090026 | 41 | 0 | 0.0 | 0.0 | 0.00 | 0.58 | 0.00 | 73 | 1007.1 |
| 20260506084536 | 42 | 0 | 0.0 | 0.0 | 0.00 | 0.58 | 0.00 | 72 | 1007.0 |
| 20260506083031 | 42 | 0 | 0.0 | 0.0 | 0.00 | 0.58 | 0.00 | 71 | 1007.0 |
| 20260506081528 | 42 | 0 | 0.0 | 3.0 | 0.00 | 0.58 | 0.00 | 73 | 1007.2 |
| 20260506073025 | 43 | 0 | 0.0 | 0.0 | 0.00 | 0.58 | 0.00 | 70 | 1007.0 |
| 20260506071528 | 43 | 0 | 0.0 | 0.0 | 0.00 | 0.58 | 0.00 | 69 | 1006.8 |
| 20260506061528 | 43 | 0 | 0.0 | 1.0 | 0.00 | 0.58 | 0.00 | 71 | 1006.7 |
| 20260506044525 | 45 | 0 | 0.0 | 2.0 | 0.00 | 0.58 | 0.00 | 70 | 1006.0 |
| 20260506043027 | 45 | 0 | 0.0 | 2.0 | 0.00 | 0.58 | 0.00 | 68 | 1005.9 |
| 20260506041539 | 45 | 0 | 0.0 | 2.0 | 0.00 | 0.58 | 0.00 | 71 | 1005.7 |
| 20260506040029 | 45 | 0 | 0.0 | 2.0 | 0.00 | 0.58 | 0.00 | 71 | 1005.7 |
| 20260506034534 | 45 | 0 | 0.0 | 2.0 | 0.00 | 0.58 | 0.58 | 72 | 1005.7 |
| 20260506033028 | 45 | 0 | 0.0 | 0.0 | 0.00 | 0.58 | 0.58 | 73 | 1005.5 |
| 20260506031526 | 46 | 0 | 0.0 | 0.0 | 0.00 | 0.58 | 0.58 | 70 | 1005.4 |